This is the latest recevied weather packets stored in our database for station/object KB2M. If no packets are shown the sender has not sent any weather packets the latest 10 day(s).
| Time | Temp. | Humidity | Pressure | Rain* | Wind** | Luminosity | Snow |
|---|---|---|---|---|---|---|---|
| 1788067984 | 25.56° C | 90% | 1019.6 hPa | 0 mm | - | - | - |
| 1788067384 | 26.11° C | 89% | 1019.3 hPa | 0 mm | - | - | - |
| 1788066754 | 26.11° C | 89% | 1019.3 hPa | 0 mm | - | - | - |
| 1788066154 | 26.11° C | 89% | 1018.9 hPa | 0 mm | - | - | - |
| 1788065554 | 25.56° C | 89% | 1018.9 hPa | 0 mm | - | - | - |
| 1788064924 | 25.56° C | 89% | 1018.6 hPa | 0 mm | - | - | - |
| 1788064294 | 26.11° C | 89% | 1018.6 hPa | 0 mm | - | - | - |
| 1788063694 | 26.11° C | 88% | 1018.2 hPa | 0 mm | - | - | - |
| 1788063094 | 26.11° C | 88% | 1018.2 hPa | 0 mm | - | - | - |
| 1788062494 | 26.11° C | 88% | 1018.9 hPa | 0 mm | - | - | - |
| 1788061864 | 26.11° C | 88% | 1019.3 hPa | 0 mm | - | - | - |
| 1788061264 | 26.11° C | 87% | 1019.3 hPa | 0 mm | - | - | - |
| 1788060634 | 26.11° C | 88% | 1019.6 hPa | 0 mm | - | - | - |
| 1788060034 | 26.11° C | 88% | 1019.6 hPa | 0 mm | - | - | - |
| 1788059434 | 26.11° C | 89% | 1019.6 hPa | 0 mm | - | - | - |
| 1788058804 | 26.11° C | 88% | 1019.9 hPa | 0 mm | - | - | - |
| 1788058204 | 26.67° C | 86% | 1019.9 hPa | 0 mm | - | - | - |
| 1788057604 | 27.22° C | 86% | 1020.3 hPa | 0 mm | - | - | - |
| 1788057004 | 27.22° C | 86% | 1020.3 hPa | 0 mm | - | - | - |
| 1788056374 | 26.67° C | 87% | 1020.3 hPa | 0 mm | - | - | - |
| 1788055774 | 26.67° C | 88% | 1020.9 hPa | 0 mm | - | - | - |
| 1788055144 | 26.67° C | 89% | 1020.9 hPa | 0 mm | - | - | - |
| 1788054544 | 26.67° C | 89% | 1021.3 hPa | 0 mm | - | - | - |
| 1788053944 | 26.67° C | 88% | 1020.9 hPa | 0 mm | - | - | - |
| 1788053344 | 26.67° C | 88% | 1020.9 hPa | 0 mm | - | - | - |
* Rain latest hour (hover to see other rain measurements)
** Current wind speed in m/s (hover to see current wind gust speed)